Kenai, AK

5:45 PM AKST on February 23, 2017 (GMT -0900)
Kenai Municipal

Weather History for PAEN - December, 2012

Change the Weather History Date:

Wednesday, December 5, 2012

  Actual Average Record
Temperature  
Mean Temperature -8 °F -  
Max Temperature 1 °F 23 °F 39 °F (1969)
Min Temperature -16 °F 8 °F -27 °F (1975)
Degree Days  
Heating Degree Days 72    
Moisture  
Dew Point -13 °F    
Average Humidity 77    
Maximum Humidity 83    
Minimum Humidity 69    
Precipitation  
Precipitation 0.00 in - - ()
Sea Level Pressure  
Sea Level Pressure 29.58 in    
Wind  
Wind Speed 4 mph (NE)    
Max Wind Speed 8 mph    
Max Gust Speed -    
Visibility 10 miles    
Events      
Averages and records for this station are not official NWS values.
T = Trace of Precipitation, MM = Missing Value Source: NWS Daily Summary

Daily Weather History Graph

Daily Weather History Graph

Search for Another Location

Airport or City:

Trip Planner

Search our weather history database for the weather conditions in past years. The results will help you decide how hot, cold, wet, or windy it might be!

Date:

Astronomy

Dec. 05, 2012 Rise Set
Actual Time 9:54 AM AKST 3:57 PM AKST
Civil Twilight 8:56 AM AKST 4:54 PM AKST
Nautical Twilight 7:59 AM AKST 5:51 PM AKST
Astronomical Twilight 7:07 AM AKST 6:43 PM AKST
Moon No Moon Rise 12:58 PM AKST (12/5)
Length of Visible Light 7h 58m
Length of Day
6h 03m
Waning Gibbous, 58% of the Moon is Illuminated
Dec 5
Waning Gibbous
Dec 6
Last Quarter
Dec 12
New
Dec 19
First Quarter
Dec 28
Full

Hourly Weather History & Observations

Time (AKST) Temp. Windchill Dew Point Humidity Pressure Visibility Wind Dir Wind Speed Gust Speed Precip Events Conditions
12:53 AM -9.0 °F -22.3 °F -14.1 °F 79% 29.55 in 10.0 mi NE 5.8 mph - N/A   Clear
1:53 AM -11.0 °F -22.8 °F -15.0 °F 83% 29.55 in 10.0 mi NNE 4.6 mph - N/A   Clear
3:53 AM -11.9 °F - -17.0 °F 78% 29.56 in 10.0 mi Calm Calm - N/A   Clear
5:53 AM -9.9 °F -24.9 °F -15.0 °F 78% 29.56 in 10.0 mi NNE 6.9 mph - N/A   Clear
6:53 AM -11.0 °F -26.2 °F -16.1 °F 78% 29.55 in 10.0 mi NE 6.9 mph - N/A   Clear
7:53 AM -8.0 °F -19.2 °F -14.1 °F 75% 29.55 in 10.0 mi NE 4.6 mph - N/A   Clear
8:53 AM -11.0 °F - -16.1 °F 78% 29.57 in 10.0 mi Calm Calm - N/A   Clear
9:53 AM -11.9 °F -21.5 °F -17.0 °F 78% 29.57 in 10.0 mi NNE 3.5 mph - N/A   Clear
10:53 AM -9.0 °F -20.4 °F -15.0 °F 75% 29.58 in 10.0 mi NE 4.6 mph - N/A   Clear
11:53 AM -4.0 °F - -9.9 °F 76% 29.59 in 10.0 mi Calm Calm - N/A   Clear
12:53 PM 1.0 °F -12.9 °F -6.0 °F 72% 29.60 in 10.0 mi NE 8.1 mph - N/A   Clear
1:53 PM 1.0 °F -11.7 °F -7.1 °F 69% 29.59 in 10.0 mi NE 6.9 mph - N/A   Clear
2:53 PM 1.9 °F -9.2 °F -6.0 °F 69% 29.59 in 10.0 mi ENE 5.8 mph - N/A   Clear
3:53 PM 1.0 °F -10.3 °F -7.1 °F 69% 29.59 in 10.0 mi NE 5.8 mph - N/A   Clear
4:53 PM -0.9 °F -8.9 °F -8.0 °F 72% 29.59 in 10.0 mi NE 3.5 mph - N/A   Clear
5:53 PM -7.1 °F - -11.9 °F 79% 29.59 in 10.0 mi Calm Calm - N/A   Clear
6:53 PM -7.1 °F -18.1 °F -11.0 °F 83% 29.59 in 10.0 mi East 4.6 mph - N/A   Clear
7:53 PM -9.0 °F - -13.0 °F 83% 29.60 in 10.0 mi Calm Calm - N/A   Clear
8:53 PM -11.9 °F - -16.1 °F 82% 29.60 in 10.0 mi Calm Calm - N/A   Clear
9:53 PM -13.0 °F - -18.0 °F 78% 29.62 in 10.0 mi Calm Calm - N/A   Clear
10:53 PM -16.1 °F - -20.9 °F 79% 29.62 in 10.0 mi Calm Calm - N/A   Clear
11:53 PM -13.0 °F - -17.0 °F 82% 29.63 in 10.0 mi Calm Calm - N/A   Clear